Regional Weather Roundup
Issued by NWS

Home | Current Version | Previous Version | Graphics & Text | Print | Product List | Glossary On
Versions: 1 2 3 4 5 6 7 8 9 10 11 12 13 14 15 16 17 18 19 20 21 22 23 24 25 26 27 28 29 30 31 32 33 34 35 36 37 38 39 40 41 42 43 44 45 46 47 48 49 50
000
ASUS44 KMEG 012310
RWRTN
TENNESSEE HOURLY STATE WEATHER ROUNDUP
NATIONAL WEATHER SERVICE MEMPHIS TN
600 PM CDT WED APR 01 2015

TNZ002-004-019-021-049-052-054-088>092-020000-
WEST TENNESSEE

CITY           SKY/WX    TMP DP  RH WIND       PRES   REMARKS
MEMPHIS INTL   CLOUDY    77  62  59 S8        29.94S
NWS MEMPHIS      N/A     68 N/A N/A MISG        N/A
JACKSON        CLOUDY    75  57  53 S5        29.97R
DYERSBURG      CLOUDY    73  50  43 SE6       29.96R
UNION CITY     SUNNY     73  54  49 S6        29.95R
PARIS          SUNNY     75  37  25 VRB7      29.97S
HUNTINGDON     CLOUDY    75  43  31 S8        29.96F
LEXINGTON      SUNNY     75  46  35 S5        29.97S
SAVANNAH       SUNNY     73  55  53 SE3       29.99S
$$

TNZ008-025-027-028-033-062-065-066-020000-
NORTH MIDDLE TENNESSEE

CITY           SKY/WX    TMP DP  RH WIND       PRES   REMARKS
NASHVILLE      PTSUNNY   74  28  18 E5        30.02S
CLARKSVILLE    MOSUNNY   73  39  29 E10       29.99F
SMYRNA         SUNNY     74  31  20 S5        30.03R
COOKEVILLE     SUNNY     75  28  17 CALM        N/A
CROSSVILLE     SUNNY     71  18  13 CALM      30.07S
$$

TNZ061-075-076-078-094-096-097-020000-
SOUTH MIDDLE TENNESSEE

CITY           SKY/WX    TMP DP  RH WIND       PRES   REMARKS
FAYETTEVILLE   SUNNY     73  43  33 CALM      30.02S
TULLAHOMA      SUNNY     73  28  19 CALM      30.03F
WINCHESTER     SUNNY     75  36  23 CALM      30.02F
MCMINNVILLE    SUNNY     73  28  19 N16       30.04S SQUALL
COLUMBIA       SUNNY     75  45  33 E6        30.00S
SHELBYVILLE    SUNNY     75  39  27 CALM      30.03S
$$

TNZ017-018-042-046-047-020000-
NORTHEAST TENNESSEE

CITY           SKY/WX    TMP DP  RH WIND       PRES   REMARKS
TRI CITIES     PTCLDY    68  13  12 CALM      30.09S
ELIZABETHTON   CLEAR     66  14  13 W3        30.09S
$$

TNZ012-013-036-069-073-074-020000-
CENTRAL EAST TENNESSEE

CITY           SKY/WX    TMP DP  RH WIND       PRES   REMARKS
KNOXVILLE      MOSUNNY   69  29  22 N7        30.05S
OAK RIDGE      SUNNY     73  23  15 E5        30.07S
GATLINBURG     CLEAR     68  23  18 NE6       30.06S
MORRISTOWN     CLEAR     68  21  17 NE5       30.09R
$$

TNZ083-085-099-020000-
SOUTHEAST TENNESSEE

CITY           SKY/WX    TMP DP  RH WIND       PRES   REMARKS
CHATTANOOGA    MOSUNNY   76  33  21 E6        30.03S
$$

SKY/WX REPORTED AS FAIR MEANS FEW OR NO CLOUDS BELOW
12 THOUSAND FEET.




USA.gov is the U.S. government's official web portal to all federal, state and local government web resources and services.